GFSFLT1_sfc_thetae_000.txt.gz
Theta_e
320 321 323 326 327 327 330 328 325 325 326 326 323 322 322 322 321 319 321 319 320 320 319 320 322 318 317 317 318 316 315 315
321 323 325 325 326 325 327 326 326 324 323 319 317 315 317 318 318 318 317 318 317 316 315 315 314 313 314 314 312 311 311 313
318 320 324 326 325 324 323 322 320 318 317 317 317 317 316 316 317 316 317 316 315 312 313 312 312 310 310 311 311 309 308 309
315 317 319 321 320 319 317 316 315 316 317 315 314 314 313 312 312 312 313 314 313 312 312 312 311 309 307 307 308 306 304 305
313 315 316 317 317 318 316 316 315 314 315 313 312 310 309 312 314 312 312 312 311 310 309 309 309 308 306 307 306 306 304 301
312 313 315 316 317 318 317 315 314 314 313 312 311 312 311 311 310 309 309 309 308 308 307 305 306 305 305 306 304 303 303 301
312 314 315 315 317 317 316 314 313 314 313 313 311 308 308 307 307 305 304 304 304 305 305 305 305 304 303 303 303 301 298 298
312 312 312 313 315 315 315 314 312 313 311 310 309 309 308 306 304 302 301 301 301 301 303 303 302 302 303 303 302 301 298 295
311 312 313 313 315 315 315 313 311 312 312 310 310 309 305 304 303 301 300 300 301 302 302 302 301 300 299 299 297 298 297 297
311 312 313 313 313 314 314 313 312 312 312 310 307 306 305 304 302 302 301 302 301 301 300 299 300 299 298 296 295 294 294 294
311 311 312 313 313 313 315 312 310 309 306 305 303 303 305 303 303 301 301 301 300 299 299 298 298 298 297 296 294 295 294 293
310 310 310 311 311 311 311 309 307 306 305 303 304 303 303 302 301 300 299 298 298 297 297 296 296 295 295 295 293 293 292 291
308 308 308 308 308 308 307 307 306 305 304 304 302 302 301 300 299 298 297 296 297 296 295 294 294 294 294 293 292 292 291 290
307 307 306 306 305 305 304 305 306 305 304 302 301 300 298 297 297 296 296 295 295 294 292 291 290 290 289 289 289 289 288 287
305 305 304 303 303 302 303 302 305 304 303 301 300 299 296 295 295 294 294 294 292 291 290 290 290 289 289 288 288 286 285 285
303 303 302 301 301 301 301 301 303 303 302 300 300 298 296 296 295 294 293 292 291 290 289 289 289 288 286 284 284 283 283 283
301 301 300 299 299 298 298 298 299 303 300 299 300 299 297 295 294 293 292 290 289 289 288 288 287 288 284 283 282 280 282 281
299 299 298 297 296 296 296 296 298 299 298 299 299 296 294 295 294 292 290 288 288 288 288 288 287 285 284 283 282 280 280 280
298 297 297 297 297 296 295 295 295 295 296 297 297 296 294 294 293 291 290 288 287 287 287 287 285 286 286 285 282 279 279 279

GFSFLT1_sfc_thetae_003.txt.gz
Theta_e
316 316 315 314 317 326 324 323 322 317 317 315 314 312 312 311 310 309 310 313 313 311 311 311 311 310 309 309 308 309 308 309
317 317 316 316 319 318 317 316 312 313 311 310 309 307 308 308 309 311 311 310 310 309 308 309 308 307 306 306 307 306 306 307
313 313 312 312 312 311 311 311 310 310 310 309 308 307 308 307 308 309 310 310 309 308 307 307 306 305 304 303 303 303 302 304
311 311 309 309 308 308 308 308 308 309 309 307 306 305 305 306 308 308 309 309 307 306 305 304 304 304 302 301 303 301 299 301
310 309 307 308 307 307 307 308 307 308 307 305 304 304 304 306 306 305 306 305 305 305 304 302 303 302 301 301 304 300 300 298
306 307 308 308 307 306 306 306 307 307 305 304 305 303 303 304 304 301 300 301 302 303 302 301 301 301 299 299 299 298 298 297
307 308 309 307 306 306 305 305 305 306 305 304 304 301 301 301 298 297 298 298 300 300 301 300 300 299 298 298 298 297 296 297
305 306 305 305 304 305 305 306 306 305 304 303 302 301 299 297 296 295 296 297 297 298 298 297 297 297 297 296 295 295 294 293
304 305 304 305 306 306 306 306 306 307 304 302 301 300 299 298 298 298 298 297 296 298 297 297 297 296 295 294 293 293 294 293
304 307 308 308 308 306 306 306 305 302 301 300 300 302 301 300 299 297 296 297 299 297 296 296 295 295 295 294 292 291 292 291
304 305 305 304 304 305 304 303 302 301 299 301 303 302 302 301 297 296 296 295 296 295 294 294 293 293 293 292 291 290 290 289
302 302 303 303 303 302 302 302 302 300 301 302 301 300 298 297 296 294 294 294 294 294 293 292 292 291 291 291 290 290 289 289
301 302 301 300 299 299 299 300 300 300 300 299 298 298 297 295 294 293 293 292 293 292 291 289 289 288 287 288 288 289 288 286
301 300 300 298 298 298 298 298 299 300 300 298 297 298 295 292 291 292 291 291 290 289 288 288 287 287 286 286 285 285 284 283
299 299 298 297 296 296 295 295 296 298 300 299 298 298 296 292 293 292 291 290 288 287 287 287 287 287 286 285 284 282 281 282
297 297 295 294 293 292 292 292 294 294 296 297 297 297 294 294 293 292 292 290 288 286 286 286 286 285 284 281 281 280 279 280
296 297 295 293 291 291 292 291 291 293 292 292 295 295 294 294 294 293 291 288 286 285 285 285 284 285 283 283 280 278 279 279
295 295 292 292 291 291 289 290 291 291 291 293 295 294 293 294 294 292 288 286 284 284 284 284 283 280 283 282 282 279 278 277
295 292 291 290 289 289 289 289 290 290 290 292 293 292 292 294 294 289 287 285 283 282 282 283 282 283 285 285 282 278 278 279

GFSFLT1_sfc_thetae_006.txt.gz
Theta_e
313 314 317 316 322 321 320 322 321 315 311 311 311 311 310 308 307 309 310 310 309 307 307 307 307 306 304 304 303 303 303 303
311 312 312 312 311 312 311 312 314 310 309 309 309 305 306 306 306 309 309 309 309 307 305 306 305 304 302 302 302 301 301 302
308 309 309 308 307 310 310 309 308 309 310 309 307 305 305 306 311 309 308 307 306 305 303 302 303 302 300 300 300 299 300 300
307 307 305 304 304 305 306 305 306 307 307 305 305 305 306 306 305 304 304 303 303 302 301 301 301 300 299 298 299 298 297 298
307 305 304 304 303 303 304 305 305 305 305 304 304 303 302 303 302 300 299 300 301 301 300 300 300 300 298 298 300 297 297 295
305 305 305 305 304 303 303 305 305 304 303 303 303 301 300 301 299 297 297 298 299 299 300 300 299 298 297 296 297 295 295 294
305 306 306 305 304 303 302 303 304 304 303 302 303 300 299 297 295 294 295 297 297 298 299 296 295 295 295 294 293 293 292 292
304 304 304 304 304 304 303 304 304 304 303 300 299 298 296 295 295 297 297 298 297 297 296 295 294 294 294 293 292 293 293 292
303 303 302 302 304 303 303 302 299 300 299 298 299 298 299 299 299 295 297 297 296 295 295 294 294 294 293 292 291 290 290 290
301 302 302 303 303 301 303 302 300 299 299 299 299 301 301 300 301 298 297 295 296 294 294 293 292 292 292 291 289 289 288 287
301 301 301 301 301 303 304 302 300 298 299 300 302 301 300 299 296 294 293 293 294 293 292 291 291 291 290 290 289 288 287 287
299 299 299 299 299 298 299 298 300 298 298 298 297 297 296 296 294 294 293 293 294 294 292 290 289 288 288 287 287 288 287 286
299 298 297 296 296 296 295 296 297 297 298 298 297 297 296 294 293 292 292 292 292 291 291 289 287 286 285 285 285 285 283 282
297 296 295 295 294 293 291 291 291 292 294 295 296 297 296 292 292 291 291 290 291 290 289 287 286 286 285 284 284 283 281 281
295 295 294 292 291 290 290 290 290 290 290 291 291 292 295 291 290 291 293 293 293 289 287 287 287 286 285 283 282 280 280 280
295 294 292 289 289 289 289 289 290 290 290 289 291 293 292 292 293 293 293 293 293 288 286 286 285 285 283 281 281 280 279 280
294 294 290 290 289 288 288 289 289 290 289 290 293 293 293 292 292 292 291 291 287 286 285 284 283 284 284 284 282 279 279 278
293 292 290 289 287 288 287 288 289 289 289 291 291 293 292 291 292 291 291 287 288 284 283 283 281 281 284 285 284 280 278 277
292 289 288 287 287 287 287 288 287 288 289 290 290 290 290 290 290 289 289 287 285 282 281 282 281 282 285 285 283 279 278 278

GFSFLT1_sfc_thetae_009.txt.gz
Theta_e
312 315 318 318 317 320 320 320 318 315 313 310 310 311 310 309 307 307 308 308 307 306 305 304 305 302 301 301 300 301 300 301
308 308 310 310 311 312 313 315 316 312 309 309 309 304 305 306 307 308 307 306 305 302 301 301 302 300 299 299 299 299 298 299
306 307 307 307 309 310 310 309 309 309 310 308 307 306 305 309 308 305 304 303 301 301 299 299 299 299 298 297 297 297 297 298
305 305 302 303 304 305 305 305 306 307 309 307 304 304 304 303 301 300 299 301 300 300 299 299 299 298 296 296 296 296 294 296
304 302 301 301 300 301 302 303 303 304 304 303 302 301 301 301 299 296 296 299 298 299 298 298 297 297 295 296 296 293 293 292
303 303 303 302 302 301 301 303 303 303 302 302 302 300 298 298 295 295 295 297 297 298 297 297 297 296 294 293 292 292 292 290
303 304 304 302 301 301 300 301 302 302 301 300 300 297 296 294 293 294 294 295 296 297 298 296 295 294 292 292 291 290 290 290
304 304 302 301 300 300 302 301 299 298 298 297 297 295 294 295 297 298 297 297 297 296 295 294 293 293 292 291 290 289 289 287
301 300 300 299 299 297 297 297 297 298 298 297 297 298 297 299 300 299 297 295 295 294 293 293 293 293 291 290 289 288 287 286
299 300 299 299 299 299 298 297 297 298 299 298 298 298 298 298 298 296 294 293 295 293 294 294 294 291 291 290 288 287 287 286
298 298 298 297 298 298 299 299 298 297 297 297 298 298 297 297 296 294 293 292 295 295 295 293 292 291 291 288 287 286 287 286
298 297 298 296 295 295 294 296 295 293 293 295 295 295 295 295 293 292 292 292 294 294 293 291 290 288 287 286 285 286 286 285
297 296 296 295 292 291 291 290 290 291 292 292 293 293 293 292 292 291 292 292 290 290 291 292 289 287 286 285 285 285 283 281
295 294 294 291 290 290 289 289 288 289 289 289 289 290 291 292 291 290 291 290 291 292 292 288 286 286 285 284 284 282 281 281
294 293 292 291 290 289 288 288 288 288 288 288 290 291 291 289 288 289 290 291 291 290 291 287 286 286 285 284 282 280 280 281
294 292 291 289 288 288 287 288 288 289 288 288 290 291 291 290 290 290 290 290 291 290 287 285 285 284 283 281 281 280 279 279
294 294 291 289 287 286 287 287 288 288 287 289 290 290 291 291 291 290 292 291 290 284 288 285 282 283 285 285 283 279 279 279
292 292 289 288 287 287 286 287 287 287 287 289 290 289 290 289 289 290 289 288 286 285 282 281 281 281 285 285 285 281 280 278
292 290 288 287 286 286 286 286 286 286 287 288 289 288 288 288 288 288 287 287 286 281 281 281 281 282 285 284 283 280 278 278